Time,TemperatureF,DewpointF,PressureIn,WindDirection,WindDirectionDegrees,WindSpeedMPH,WindSpeedGustMPH,Humidity,HourlyPrecipIn,Conditions,Clouds,dailyrainin,SoftwareType,DateUTC
2013-01-23 00:02:00,44.0,-99.9,-100.00,SE,135,14.0,16.0,-999,-99.99,,,-99.99,,2013-01-23 08:02:00,
2013-01-23 00:13:00,44.0,-99.9,-100.00,SE,135,14.0,16.0,-999,-99.99,,,-99.99,,2013-01-23 08:13:00,
2013-01-23 00:23:00,44.0,-99.9,-100.00,SE,135,14.0,16.0,-999,-99.99,,,-99.99,,2013-01-23 08:23:00,
2013-01-23 00:33:00,44.0,-99.9,-100.00,SE,135,13.0,16.0,-999,-99.99,,,-99.99,,2013-01-23 08:33:00,
2013-01-23 00:43:00,44.0,-99.9,-100.00,SE,135,13.0,14.0,-999,-99.99,,,-99.99,,2013-01-23 08:43:00,
2013-01-23 00:53:00,44.0,-99.9,-100.00,SE,135,13.0,14.0,-999,-99.99,,,-99.99,,2013-01-23 08:53:00,
2013-01-23 01:03:00,44.0,-99.9,-100.00,SE,135,13.0,14.0,-999,-99.99,,,-99.99,,2013-01-23 09:03:00,
2013-01-23 01:12:00,44.0,-99.9,-100.00,SE,135,12.0,14.0,-999,-99.99,,,-99.99,,2013-01-23 09:12:00,
2013-01-23 01:23:00,44.0,-99.9,-100.00,SE,135,12.0,14.0,-999,-99.99,,,-99.99,,2013-01-23 09:23:00,
2013-01-23 01:33:00,44.0,-99.9,-100.00,SE,135,12.0,15.0,-999,-99.99,,,-99.99,,2013-01-23 09:33:00,
2013-01-23 01:44:00,44.0,-99.9,-100.00,SE,135,12.0,15.0,-999,-99.99,,,-99.99,,2013-01-23 09:44:00,
2013-01-23 01:53:00,44.0,-99.9,-100.00,SE,135,12.0,15.0,-999,-99.99,,,-99.99,,2013-01-23 09:53:00,
2013-01-23 02:03:00,44.0,-99.9,-100.00,SE,135,11.0,15.0,-999,-99.99,,,-99.99,,2013-01-23 10:03:00,
2013-01-23 02:13:00,44.0,-99.9,-100.00,SE,135,12.0,13.0,-999,-99.99,,,-99.99,,2013-01-23 10:13:00,
2013-01-23 02:23:00,44.0,-99.9,-100.00,SE,135,12.0,13.0,-999,-99.99,,,-99.99,,2013-01-23 10:23:00,
2013-01-23 02:33:00,44.0,-99.9,-100.00,SE,135,14.0,16.0,-999,-99.99,,,-99.99,,2013-01-23 10:33:00,
2013-01-23 02:43:00,44.0,-99.9,-100.00,SE,135,14.0,16.0,-999,-99.99,,,-99.99,,2013-01-23 10:43:00,
2013-01-23 02:53:00,44.0,-99.9,-100.00,SE,135,14.0,16.0,-999,-99.99,,,-99.99,,2013-01-23 10:53:00,
2013-01-23 03:03:00,44.0,-99.9,-100.00,SE,135,14.0,16.0,-999,-99.99,,,-99.99,,2013-01-23 11:03:00,
2013-01-23 03:12:00,44.0,-99.9,-100.00,SE,135,14.0,16.0,-999,-99.99,,,-99.99,,2013-01-23 11:12:00,
2013-01-23 03:23:00,44.0,-99.9,-100.00,SE,135,14.0,16.0,-999,-99.99,,,-99.99,,2013-01-23 11:23:00,
2013-01-23 03:34:00,44.0,-99.9,-100.00,SE,135,15.0,17.0,-999,-99.99,,,-99.99,,2013-01-23 11:34:00,
2013-01-23 03:43:00,44.0,-99.9,-100.00,SE,135,14.0,17.0,-999,-99.99,,,-99.99,,2013-01-23 11:43:00,
2013-01-23 03:53:00,44.0,-99.9,-100.00,SE,135,14.0,17.0,-999,-99.99,,,-99.99,,2013-01-23 11:53:00,
2013-01-23 04:03:00,44.0,-99.9,-100.00,SE,135,14.0,17.0,-999,-99.99,,,-99.99,,2013-01-23 12:03:00,
2013-01-23 04:13:00,44.0,-99.9,-100.00,SE,135,15.0,16.0,-999,-99.99,,,-99.99,,2013-01-23 12:13:00,
2013-01-23 04:23:00,44.0,-99.9,-100.00,SE,135,15.0,16.0,-999,-99.99,,,-99.99,,2013-01-23 12:23:00,
2013-01-23 04:33:00,44.0,-99.9,-100.00,SE,135,16.0,17.0,-999,-99.99,,,-99.99,,2013-01-23 12:33:00,
2013-01-23 04:43:00,44.0,-99.9,-100.00,SE,135,14.0,17.0,-999,-99.99,,,-99.99,,2013-01-23 12:43:00,
2013-01-23 04:53:00,44.0,-99.9,-100.00,SE,135,14.0,17.0,-999,-99.99,,,-99.99,,2013-01-23 12:53:00,
2013-01-23 05:04:00,44.0,-99.9,-100.00,SE,135,13.0,17.0,-999,-99.99,,,-99.99,,2013-01-23 13:04:00,
2013-01-23 05:13:00,44.0,-99.9,-100.00,SE,135,10.0,16.0,-999,-99.99,,,-99.99,,2013-01-23 13:13:00,
2013-01-23 05:23:00,44.0,-99.9,-100.00,SE,135,10.0,16.0,-999,-99.99,,,-99.99,,2013-01-23 13:23:00,
2013-01-23 05:34:00,44.0,-99.9,-100.00,SE,135,12.0,15.0,-999,-99.99,,,-99.99,,2013-01-23 13:34:00,
2013-01-23 05:43:00,44.0,-99.9,-100.00,SE,135,13.0,14.0,-999,-99.99,,,-99.99,,2013-01-23 13:43:00,
2013-01-23 05:53:00,44.0,-99.9,-100.00,SE,135,10.0,14.0,-999,-99.99,,,-99.99,,2013-01-23 13:53:00,
2013-01-23 06:03:00,44.0,-99.9,-100.00,SE,135,10.0,14.0,-999,-99.99,,,-99.99,,2013-01-23 14:03:00,
2013-01-23 06:12:00,44.0,-99.9,-100.00,SE,135,13.0,14.0,-999,-99.99,,,-99.99,,2013-01-23 14:12:00,
2013-01-23 06:24:00,44.0,-99.9,-100.00,SE,135,13.0,14.0,-999,-99.99,,,-99.99,,2013-01-23 14:24:00,
2013-01-23 06:33:00,43.0,-99.9,-100.00,SE,135,9.0,17.0,-999,-99.99,,,-99.99,,2013-01-23 14:33:00,
2013-01-23 06:43:00,43.0,-99.9,-100.00,SE,135,12.0,17.0,-999,-99.99,,,-99.99,,2013-01-23 14:43:00,
2013-01-23 06:53:00,43.0,-99.9,-100.00,SE,135,12.0,17.0,-999,-99.99,,,-99.99,,2013-01-23 14:53:00,
2013-01-23 07:03:00,43.0,-99.9,-100.00,SE,135,11.0,14.0,-999,-99.99,,,-99.99,,2013-01-23 15:03:00,
2013-01-23 07:13:00,43.0,-99.9,-100.00,SE,135,13.0,14.0,-999,-99.99,,,-99.99,,2013-01-23 15:13:00,
2013-01-23 07:23:00,43.0,-99.9,-100.00,SE,135,13.0,14.0,-999,-99.99,,,-99.99,,2013-01-23 15:23:00,
2013-01-23 07:33:00,43.0,-99.9,-100.00,SE,135,12.0,15.0,-999,-99.99,,,-99.99,,2013-01-23 15:33:00,
2013-01-23 07:44:00,43.0,-99.9,-100.00,SE,135,8.0,15.0,-999,-99.99,,,-99.99,,2013-01-23 15:44:00,
2013-01-23 07:53:00,43.0,-99.9,-100.00,SE,135,8.0,15.0,-999,-99.99,,,-99.99,,2013-01-23 15:53:00,
2013-01-23 08:03:00,43.0,-99.9,-100.00,South,180,11.0,13.0,-999,-99.99,,,-99.99,,2013-01-23 16:03:00,
2013-01-23 08:12:00,43.0,-99.9,-100.00,SE,135,10.0,12.0,-999,-99.99,,,-99.99,,2013-01-23 16:12:00,
2013-01-23 08:23:00,43.0,-99.9,-100.00,SE,135,10.0,12.0,-999,-99.99,,,-99.99,,2013-01-23 16:23:00,
2013-01-23 08:33:00,44.0,-99.9,-100.00,SE,135,8.0,12.0,-999,-99.99,,,-99.99,,2013-01-23 16:33:00,
2013-01-23 08:43:00,44.0,-99.9,-100.00,South,180,6.0,11.0,-999,-99.99,,,-99.99,,2013-01-23 16:43:00,
2013-01-23 08:53:00,44.0,-99.9,-100.00,South,180,6.0,11.0,-999,-99.99,,,-99.99,,2013-01-23 16:53:00,
2013-01-23 09:03:00,43.0,-99.9,-100.00,South,180,9.0,9.0,-999,-99.99,,,-99.99,,2013-01-23 17:03:00,
2013-01-23 09:13:00,42.0,-99.9,-100.00,SE,135,9.0,11.0,-999,-99.99,,,-99.99,,2013-01-23 17:13:00,
2013-01-23 09:23:00,42.0,-99.9,-100.00,SE,135,9.0,11.0,-999,-99.99,,,-99.99,,2013-01-23 17:23:00,
2013-01-23 09:34:00,42.0,-99.9,-100.00,SE,135,10.0,11.0,-999,-99.99,,,-99.99,,2013-01-23 17:34:00,
2013-01-23 09:43:00,41.0,-99.9,-100.00,SE,135,12.0,13.0,-999,-99.99,,,-99.99,,2013-01-23 17:43:00,
2013-01-23 09:53:00,41.0,-99.9,-100.00,SE,135,12.0,13.0,-999,-99.99,,,-99.99,,2013-01-23 17:53:00,
2013-01-23 10:04:00,41.0,-99.9,-100.00,SE,135,11.0,13.0,-999,-99.99,,,-99.99,,2013-01-23 18:04:00,
2013-01-23 10:13:00,41.0,-99.9,-100.00,SE,135,12.0,12.0,-999,-99.99,,,-99.99,,2013-01-23 18:13:00,
2013-01-23 10:24:00,41.0,-99.9,-100.00,SE,135,12.0,12.0,-999,-99.99,,,-99.99,,2013-01-23 18:24:00,
2013-01-23 10:33:00,41.0,-99.9,-100.00,SE,135,11.0,12.0,-999,-99.99,,,-99.99,,2013-01-23 18:33:00,
2013-01-23 10:44:00,41.0,-99.9,-100.00,SE,135,11.0,12.0,-999,-99.99,,,-99.99,,2013-01-23 18:44:00,
2013-01-23 10:53:00,41.0,-99.9,-100.00,SE,135,11.0,12.0,-999,-99.99,,,-99.99,,2013-01-23 18:53:00,
2013-01-23 11:03:00,41.0,-99.9,-100.00,SE,135,11.0,12.0,-999,-99.99,,,-99.99,,2013-01-23 19:03:00,
2013-01-23 11:13:00,41.0,-99.9,-100.00,SE,135,11.0,12.0,-999,-99.99,,,-99.99,,2013-01-23 19:13:00,
2013-01-23 11:23:00,41.0,-99.9,-100.00,SE,135,11.0,12.0,-999,-99.99,,,-99.99,,2013-01-23 19:23:00,
2013-01-23 11:33:00,41.0,-99.9,-100.00,SE,135,10.0,12.0,-999,-99.99,,,-99.99,,2013-01-23 19:33:00,
2013-01-23 11:43:00,41.0,-99.9,-100.00,SE,135,10.0,12.0,-999,-99.99,,,-99.99,,2013-01-23 19:43:00,
2013-01-23 11:53:00,41.0,-99.9,-100.00,SE,135,10.0,12.0,-999,-99.99,,,-99.99,,2013-01-23 19:53:00,
2013-01-23 12:03:00,41.0,-99.9,-100.00,SE,135,11.0,12.0,-999,-99.99,,,-99.99,,2013-01-23 20:03:00,
2013-01-23 12:13:00,41.0,-99.9,-100.00,SE,135,11.0,12.0,-999,-99.99,,,-99.99,,2013-01-23 20:13:00,
2013-01-23 12:23:00,41.0,-99.9,-100.00,SE,135,11.0,12.0,-999,-99.99,,,-99.99,,2013-01-23 20:23:00,
2013-01-23 12:33:00,41.0,-99.9,-100.00,SE,135,9.0,12.0,-999,-99.99,,,-99.99,,2013-01-23 20:33:00,
2013-01-23 12:43:00,41.0,-99.9,-100.00,SE,135,6.0,12.0,-999,-99.99,,,-99.99,,2013-01-23 20:43:00,
2013-01-23 12:54:00,41.0,-99.9,-100.00,SE,135,6.0,12.0,-999,-99.99,,,-99.99,,2013-01-23 20:54:00,
2013-01-23 13:03:00,41.0,-99.9,-100.00,SE,135,7.0,10.0,-999,-99.99,,,-99.99,,2013-01-23 21:03:00,
2013-01-23 13:12:00,41.0,-99.9,-100.00,SE,135,8.0,9.0,-999,-99.99,,,-99.99,,2013-01-23 21:12:00,
2013-01-23 13:23:00,41.0,-99.9,-100.00,SE,135,8.0,9.0,-999,-99.99,,,-99.99,,2013-01-23 21:23:00,
2013-01-23 13:34:00,42.0,-99.9,-100.00,SE,135,4.0,9.0,-999,-99.99,,,-99.99,,2013-01-23 21:34:00,
2013-01-23 13:43:00,42.0,-99.9,-100.00,SE,135,1.0,9.0,-999,-99.99,,,-99.99,,2013-01-23 21:43:00,
2013-01-23 13:53:00,42.0,-99.9,-100.00,SE,135,1.0,9.0,-999,-99.99,,,-99.99,,2013-01-23 21:53:00,
2013-01-23 14:03:00,42.0,-99.9,-100.00,SW,225,0.0,6.0,-999,-99.99,,,-99.99,,2013-01-23 22:03:00,
2013-01-23 14:13:00,43.0,-99.9,-100.00,SE,135,2.0,4.0,-999,-99.99,,,-99.99,,2013-01-23 22:13:00,
2013-01-23 14:23:00,43.0,-99.9,-100.00,SE,135,2.0,4.0,-999,-99.99,,,-99.99,,2013-01-23 22:23:00,
2013-01-23 14:33:00,45.0,-99.9,-100.00,North,0,15.0,19.0,-999,-99.99,,,-99.99,,2013-01-23 22:33:00,
2013-01-23 14:43:00,46.0,-99.9,-100.00,NE,45,17.0,26.0,-999,-99.99,,,-99.99,,2013-01-23 22:43:00,
2013-01-23 14:53:00,46.0,-99.9,-100.00,NE,45,17.0,26.0,-999,-99.99,,,-99.99,,2013-01-23 22:53:00,
2013-01-23 15:03:00,46.0,-99.9,-100.00,NE,45,14.0,27.0,-999,-99.99,,,-99.99,,2013-01-23 23:03:00,
2013-01-23 15:13:00,46.0,-99.9,-100.00,NE,45,12.0,27.0,-999,-99.99,,,-99.99,,2013-01-23 23:13:00,
2013-01-23 15:23:00,46.0,-99.9,-100.00,NE,45,12.0,27.0,-999,-99.99,,,-99.99,,2013-01-23 23:23:00,
2013-01-23 15:33:00,46.0,-99.9,-100.00,North,0,14.0,25.0,-999,-99.99,,,-99.99,,2013-01-23 23:33:00,
2013-01-23 15:43:00,45.0,-99.9,-100.00,North,0,12.0,20.0,-999,-99.99,,,-99.99,,2013-01-23 23:43:00,
2013-01-23 15:53:00,45.0,-99.9,-100.00,North,0,12.0,20.0,-999,-99.99,,,-99.99,,2013-01-23 23:53:00,
2013-01-23 16:03:00,45.0,-99.9,-100.00,North,0,8.0,19.0,-999,-99.99,,,-99.99,,2013-01-24 00:03:00,
2013-01-23 16:12:00,45.0,-99.9,-100.00,NE,45,10.0,15.0,-999,-99.99,,,-99.99,,2013-01-24 00:12:00,
2013-01-23 16:23:00,45.0,-99.9,-100.00,NE,45,10.0,15.0,-999,-99.99,,,-99.99,,2013-01-24 00:23:00,
2013-01-23 16:33:00,46.0,-99.9,-100.00,NE,45,6.0,13.0,-999,-99.99,,,-99.99,,2013-01-24 00:33:00,
2013-01-23 16:43:00,46.0,-99.9,-100.00,NE,45,6.0,12.0,-999,-99.99,,,-99.99,,2013-01-24 00:43:00,
2013-01-23 16:53:00,46.0,-99.9,-100.00,NE,45,6.0,12.0,-999,-99.99,,,-99.99,,2013-01-24 00:53:00,
2013-01-23 17:03:00,45.0,-99.9,-100.00,East,90,5.0,7.0,-999,-99.99,,,-99.99,,2013-01-24 01:03:00,
2013-01-23 17:13:00,45.0,-99.9,-100.00,SE,135,6.0,7.0,-999,-99.99,,,-99.99,,2013-01-24 01:13:00,
2013-01-23 17:23:00,45.0,-99.9,-100.00,SE,135,6.0,7.0,-999,-99.99,,,-99.99,,2013-01-24 01:23:00,
2013-01-23 17:33:00,45.0,-99.9,-100.00,South,180,5.0,7.0,-999,-99.99,,,-99.99,,2013-01-24 01:33:00,
2013-01-23 17:43:00,45.0,-99.9,-100.00,South,180,3.0,7.0,-999,-99.99,,,-99.99,,2013-01-24 01:43:00,
2013-01-23 17:53:00,45.0,-99.9,-100.00,South,180,3.0,7.0,-999,-99.99,,,-99.99,,2013-01-24 01:53:00,
2013-01-23 18:03:00,45.0,-99.9,-100.00,South,180,3.0,6.0,-999,-99.99,,,-99.99,,2013-01-24 02:03:00,
2013-01-23 18:12:00,45.0,-99.9,-100.00,SE,135,2.0,4.0,-999,-99.99,,,-99.99,,2013-01-24 02:12:00,
2013-01-23 18:23:00,45.0,-99.9,-100.00,SE,135,2.0,4.0,-999,-99.99,,,-99.99,,2013-01-24 02:23:00,
2013-01-23 18:33:00,45.0,-99.9,-100.00,SE,135,1.0,4.0,-999,-99.99,,,-99.99,,2013-01-24 02:33:00,
2013-01-23 18:43:00,45.0,-99.9,-100.00,SE,135,1.0,4.0,-999,-99.99,,,-99.99,,2013-01-24 02:43:00,
2013-01-23 18:53:00,45.0,-99.9,-100.00,SE,135,1.0,4.0,-999,-99.99,,,-99.99,,2013-01-24 02:53:00,
2013-01-23 19:03:00,44.0,-99.9,-100.00,SE,135,2.0,3.0,-999,-99.99,,,-99.99,,2013-01-24 03:03:00,
2013-01-23 19:12:00,44.0,-99.9,-100.00,SE,135,2.0,3.0,-999,-99.99,,,-99.99,,2013-01-24 03:12:00,
2013-01-23 19:22:00,44.0,-99.9,-100.00,SE,135,2.0,3.0,-999,-99.99,,,-99.99,,2013-01-24 03:22:00,
2013-01-23 19:33:00,44.0,-99.9,-100.00,SW,225,0.0,3.0,-999,-99.99,,,-99.99,,2013-01-24 03:33:00,
2013-01-23 19:43:00,43.0,-99.9,-100.00,South,180,0.0,3.0,-999,-99.99,,,-99.99,,2013-01-24 03:43:00,
2013-01-23 19:53:00,43.0,-99.9,-100.00,South,180,0.0,3.0,-999,-99.99,,,-99.99,,2013-01-24 03:53:00,
2013-01-23 20:03:00,43.0,-99.9,-100.00,SW,225,1.0,2.0,-999,-99.99,,,-99.99,,2013-01-24 04:03:00,
2013-01-23 20:13:00,43.0,-99.9,-100.00,East,90,2.0,3.0,-999,-99.99,,,-99.99,,2013-01-24 04:13:00,
2013-01-23 20:22:00,43.0,-99.9,-100.00,East,90,2.0,3.0,-999,-99.99,,,-99.99,,2013-01-24 04:22:00,
2013-01-23 20:33:00,42.0,-99.9,-100.00,SE,135,1.0,3.0,-999,-99.99,,,-99.99,,2013-01-24 04:33:00,
2013-01-23 20:43:00,42.0,-99.9,-100.00,South,180,1.0,3.0,-999,-99.99,,,-99.99,,2013-01-24 04:43:00,
2013-01-23 20:53:00,41.0,-99.9,-100.00,SE,135,3.0,4.0,-999,-99.99,,,-99.99,,2013-01-24 04:53:00,
2013-01-23 21:03:00,41.0,-99.9,-100.00,SE,135,3.0,4.0,-999,-99.99,,,-99.99,,2013-01-24 05:03:00,
2013-01-23 21:12:00,41.0,-99.9,-100.00,SE,135,3.0,4.0,-999,-99.99,,,-99.99,,2013-01-24 05:12:00,
2013-01-23 21:23:00,41.0,-99.9,-100.00,SE,135,3.0,4.0,-999,-99.99,,,-99.99,,2013-01-24 05:23:00,
2013-01-23 21:33:00,41.0,-99.9,-100.00,SE,135,5.0,6.0,-999,-99.99,,,-99.99,,2013-01-24 05:33:00,
2013-01-23 21:43:00,41.0,-99.9,-100.00,SE,135,6.0,6.0,-999,-99.99,,,-99.99,,2013-01-24 05:43:00,
2013-01-23 21:53:00,41.0,-99.9,-100.00,SE,135,6.0,6.0,-999,-99.99,,,-99.99,,2013-01-24 05:53:00,
2013-01-23 22:03:00,41.0,-99.9,-100.00,SE,135,4.0,6.0,-999,-99.99,,,-99.99,,2013-01-24 06:03:00,
2013-01-23 22:12:00,41.0,-99.9,-100.00,SE,135,4.0,6.0,-999,-99.99,,,-99.99,,2013-01-24 06:12:00,
2013-01-23 22:22:00,41.0,-99.9,-100.00,SE,135,4.0,6.0,-999,-99.99,,,-99.99,,2013-01-24 06:22:00,
2013-01-23 22:33:00,41.0,-99.9,-100.00,SE,135,6.0,7.0,-999,-99.99,,,-99.99,,2013-01-24 06:33:00,
2013-01-23 22:43:00,41.0,-99.9,-100.00,SE,135,7.0,8.0,-999,-99.99,,,-99.99,,2013-01-24 06:43:00,
2013-01-23 22:53:00,41.0,-99.9,-100.00,SE,135,7.0,8.0,-999,-99.99,,,-99.99,,2013-01-24 06:53:00,
2013-01-23 23:03:00,41.0,-99.9,-100.00,SE,135,6.0,8.0,-999,-99.99,,,-99.99,,2013-01-24 07:03:00,
2013-01-23 23:13:00,41.0,-99.9,-100.00,SE,135,7.0,8.0,-999,-99.99,,,-99.99,,2013-01-24 07:13:00,
2013-01-23 23:23:00,41.0,-99.9,-100.00,SE,135,7.0,8.0,-999,-99.99,,,-99.99,,2013-01-24 07:23:00,
2013-01-23 23:34:00,41.0,-99.9,-100.00,SE,135,8.0,9.0,-999,-99.99,,,-99.99,,2013-01-24 07:34:00,
2013-01-23 23:43:00,41.0,-99.9,-100.00,SE,135,7.0,9.0,-999,-99.99,,,-99.99,,2013-01-24 07:43:00,
2013-01-23 23:53:00,41.0,-99.9,-100.00,SE,135,7.0,9.0,-999,-99.99,,,-99.99,,2013-01-24 07:53:00,